Regional Weather Roundup
Issued by NWS

Home | Current Version | Previous Version | Text Only | Print | Product List | Glossary Off
Versions: 1 2 3 4 5 6 7 8 9 10 11 12 13 14 15 16 17 18 19 20 21 22 23 24 25 26 27 28 29 30 31 32 33 34 35 36 37 38 39 40 41 42 43 44 45 46 47 48 49 50

000
ASUS45 KBOU 010510
RWRCO

WEATHER ROUNDUP FOR COLORADO
NATIONAL WEATHER SERVICE DENVER/BOULDER CO
1100 PM MDT TUE JUN 30 2015

NOTE: "FAIR" INDICATES FEW OR NO CLOUDS BELOW 12000 FEET WITH NO
SIGNIFICANT WEATHER AND/OR OBSTRUCTIONS TO VISIBILITY.

COZ001>005-013-030-031-010600-
...NORTHWEST COLORADO...

CITY           SKY/WX    TMP DP  RH WIND       PRES   REMARKS
CRAIG          NOT AVBL
HAYDEN         NOT AVBL
MEEKER         NOT AVBL
MOUNT WERNER   NOT AVBL
STEAMBOAT SPGS MOCLDY    65  49  55 SE3       30.26S
WALDEN         CLOUDY    54  50  87 SE7       30.36F
$$

COZ006>008-011-010600-
...WEST CENTRAL VALLEYS...

CITY           SKY/WX    TMP DP  RH WIND       PRES   REMARKS
GRAND JUNCTION NOT AVBL
MONTROSE       NOT AVBL
EAGLE          NOT AVBL
RIFLE          NOT AVBL
DELTA          CLOUDY    81  51  36 N6        30.09S
NUCLA          CLOUDY    79  41  25 SE3       30.17S
$$

COZ017>023-064>068-010600-
...SOUTHWEST COLORADO...

CITY           SKY/WX    TMP DP  RH WIND       PRES   REMARKS
DURANGO        NOT AVBL
CORTEZ         NOT AVBL
PAGOSA SPRINGS CLOUDY    74  41  30 NW22G32   30.31R THUNDER
TELLURIDE      CLOUDY    67  40  36 CALM      30.45R
WOLF CREEK PAS NOT AVBL
$$

COZ009-010-012-014-032>034-037-058>063-010600-
...CENTRAL COLORADO...

CITY           SKY/WX    TMP DP  RH WIND       PRES   REMARKS
ASPEN          NOT AVBL
BUENA VISTA    CLOUDY    63  53  68 CALM      30.40S
COPPER MTN     MOCLDY    54  39  58 S7        30.71F
BERTHOUD PASS  FAIR      41  32  70 SW5       30.74F
COTTONWOOD PAS NOT AVBL
GUNNISON       NOT AVBL
KREMMLING      CLOUDY    66  43  42 SE6       30.35S
LEADVILLE      NOT AVBL
MONARCH PASS   CLOUDY    50  41  71 E26       30.79F
SALIDA         CLOUDY    63  53  69 E6        30.45R
SUNLIGHT       MOCLDY    61  39  44 NE3       30.61F
WILKERSON PASS CLOUDY    55  37  50 CALM      30.68S
$$

COZ069>075-010600-
...SAN LUIS VALLEY/SANGRE DE CRISTO MOUNTAINS...

CITY           SKY/WX    TMP DP  RH WIND       PRES   REMARKS
ALAMOSA        CLOUDY    73  42  32 N14       30.28R
LA VETA PASS   MOCLDY    61  37  41 MISG      30.54R THUNDER
SAGUACHE       CLOUDY    66  48  52 NE6       30.35R
$$

COZ035-036-038>040-010600-
...NORTHERN COLORADO FRONT RANGE...

CITY           SKY/WX    TMP DP  RH WIND       PRES   REMARKS
DENVER INTL AP NOT AVBL
DMNS CITY PARK   N/A     73  53  50 S2G8      30.15F
AURORA         MOCLDY    72  53  50 W3        30.19F
FRONT RANGE AP NOT AVBL
ERIE MUNI ARPT CLOUDY    72  54  52 S3        30.11F
BOULDER MUN AP CLOUDY    73  52  46 SW9       30.12F
CENTENNIAL     NOT AVBL
BROOMFIELD     NOT AVBL
FORT COLLINS   NOT AVBL
LONGMONT       CLOUDY    74  56  53 N12       30.15S
$$

COZ041-046-047-076>085-087-088-010600-
...PIKES PEAK/PALMER DIVIDE AND SOUTHERN FOOTHILLS...

CITY           SKY/WX    TMP DP  RH WIND       PRES   REMARKS
COLO. SPRINGS  NOT AVBL
A. F. ACADEMY  CLOUDY    71  49  45 E6        30.24
ELLICOTT       CLOUDY   N/A N/A N/A N5        30.19F
FALCON         CLOUDY    72  45  37 NW8       30.27S
FORT CARSON    CLOUDY    73  51  45 NW8       30.18S
LIMON          NOT AVBL
MONUMENT HILL  CLOUDY    64  50  59 W8        30.29R
TRINIDAD       NOT AVBL
$$

COZ042>045-048>051-090-091-010600-
...NORTHEAST COLORADO...

CITY           SKY/WX    TMP DP  RH WIND       PRES   REMARKS
GREELEY ARPT   NOT AVBL
AKRON          NOT AVBL
BURLINGTON     NOT AVBL
WRAY           MOCLDY    75  58  55 W10       29.94R
STERLING       CLOUDY    77  57  50 NW36G54     N/A
HOLYOKE        MOCLDY    77  59  53 W8        29.94R
FORT MORGAN    CLOUDY    73  53  50 NW28G38   30.10S
$$

COZ086-089-092>099-010600-
...SOUTHEAST COLORADO...

CITY           SKY/WX    TMP DP  RH WIND       PRES   REMARKS
PUEBLO         NOT AVBL
LA JUNTA       NOT AVBL
LAMAR          NOT AVBL
SPRINGFIELD      N/A     71  48  43 S10       30.04S
$$



USA.gov is the U.S. government's official web portal to all federal, state and local government web resources and services.